Location: Arroyo de Valdeoliva
(40.1604°N, 4.9878°W)
Time: 19:54:43
(UTC+00:00)

Cosmos 2333 Rocket - Pass Details

Date: 11 December 2025
Orbit: 837 x 865 km, 70.8° (Epoch: 12 January)

Event Time Altitude Azimuth Distance (km) Brightness Sun altitude
Rises 18:47:37 0° 163° (SSE) 3,408 5.3 -20.9°
Reaches altitude 10° 18:50:37 10° 148° (SSE) 2,482 4.4 -21.5°
Enters shadow 18:51:19 13° 142° (SE) 2,298 4.2 -21.6°
